Showing default

GAOFEN 9 05, 46232

Orbit data source: Space-Track

GAOFEN 9 05, 46232 is a payload satellite owned by GGKGJ (CN) in SSO that was launched on Sun, 23 Aug 2020 UTC via a CHANG ZHENG 2D launch vehicle from the Jiuquan Satellite Launch Center, China (JSC). Payload-class satellites include a variety of spacecraft equipped with specific instruments for various scientific and technological missions. These include communications satellites like Starlink; space stations such as the ISS; scientific satellites like the Hubble; Earth observation satellites from companies like Planet Labs, Umbra, and HawkEye 360; GPS; miniature CubeSats for education and research; and military/defense satellites.

Loading next visibility...
Identifier
46232, 2020-058A
Orbit
SSO
Country
Flag of CNCN / PRC
Related business
Manufacturer
DFH
Mission
Operational Defense Imaging
Bus & Motor
CAST-3000, AOCS
Mass
~1,700 kg wet, ~1,500 kg dry
Launch date (UTC)
2020-08-23 (5 years ago)
Launch vehicle
CHANG ZHENG 2D
Launch site
Jiuquan Satellite Launch Center, China (JSC)
Object type
Payload
Rocket body
Debris
Shape & HBR
Box + 2 Pan, Unknown HBR
Radar Cross Section
4.991 m², Large (>1 m²)

Expand to show TLE details & history
Last TLE update: 16 hours ago

TLE from 16 hours ago
0 GAOFEN 9 05
1 46232U 20058A   25259.61881787  .00007367  00000-0  28167-3 0  9991
2 46232  97.2510 302.4602 0008963   2.5272 357.6011 15.26844886281796
Epoch: 2025-09-16T14:51Z
TLE epoch observation values (Epoch: 2025-09-16T14:51:05.863Z)
Latitude
-0.00005°
Longitude
83.87925°
Altitude
482.208 km
Speed
7.628 km/s
True Right ascension
20h 09m 50s
True Declination
0° 00' 00"
Sunlit
Object was in full shadow at epoch
Visualization orbit readout
Latitude
Unknown
Longitude
Unknown
Altitude
Unknown
Speed
Unknown
Apparent Right ascension
Unknown
Apparent Declination
Unknown
Sunlit
N/A
Visualization observer readout
Local Sidereal Time
23:43:32
Azimuth
Unknown
Elevation
Unknown
Doppler factor
Unknown
Orbital elements
Apogee altitude
488.35 km
Perigee altitude
476.052 km
Semi-major axis
6,860.338 km
Eccentricity
0.0009
Inclination
97.251°
RAAN
302.4602°
Arg. of periapsis
2.5272°
True anomaly
357.5968°
Mean anomaly
357.6011°
Eccentric anomaly
357.59895°
Mean motion
3.81966 °/min
Orbital period
94.25 mins
BSTAR
0.00028167
Loading maneuver chart data...
Computing Atmospheric mass density...
Loading historical data...
Loading historical data...
Loading historical data...
Loading historical data...
Loading historical data...
Loading historical data...
Loading historical data...
Other satellites on launch #58 in the year 2020 (2020-08-23 UTC)

Documentation

Showing up to 5 results
|